Location: Brunembert
(50.7122°N, 1.8935°E)
Time: 10:43:23
(UTC+00:00)

Terra - Pass Details

Date: 22 April 2021
Orbit: 701 x 703 km, 98.2° (Epoch: 05 May)

Event Time Altitude Azimuth Distance (km) Brightness Sun altitude
Exits shadow 22:42:45 25° 247° (WSW) 1,420 3.3 -25.0°
Maximum altitude 22:43:43 26° 267° (W) 1,359 3.4 -25.1°
Drops below altitude 10° 22:47:45 10° 324° (NW) 2,180 5.3 -25.3°
Sets 22:50:21 0° 337° (NNW) 3,104 6.5 -25.4°
